Regional Weather Roundup
Issued by NWS

Home | Current Version | Previous Version | Text Only | Print | Product List | Glossary Off
Versions: 1 2 3 4 5 6 7 8 9 10 11 12 13 14 15 16 17 18 19 20 21 22 23 24 25 26 27 28 29 30 31 32 33 34 35 36 37 38 39 40 41 42 43 44 45 46 47 48 49 50

373
ASUS43 KLSX 182257
RWRMO

WEATHER SUMMARY FOR MISSOURI
NATIONAL WEATHER SERVICE SPRINGFIELD MO
600 PM CDT FRI AUG 18 2017

NOTE: "FAIR" INDICATES FEW OR NO CLOUDS BELOW 12,000 FEET WITH NO
       SIGNIFICANT WEATHER AND/OR OBSTRUCTIONS TO VISIBILITY.
       CURRENT SKY AND/OR WEATHER CONDITIONS ARE NOT AVAILABLE FOR
       CHILLICOTHE AND FARMINGTON.

MOZ001>031-035>038-043-044-053-054-190000-
...NORTHERN AND WESTERN MISSOURI...

CITY           SKY/WX    TMP DP  RH WIND       PRES   REMARKS
KANSAS CTY INT PTSUNNY   84  69  60 SW9       29.89F THUNDER
LEE`S SUMMIT   SUNNY     86  69  56 SW9       29.91S HX  90
ST JOSEPH      CLOUDY    84  68  58 NW6       29.88S
CHILLICOTHE      N/A     86  66  51 NW3       29.89S

$$
MOZ066>068-077>081-088>096-101>105-190000-
...SOUTHWEST MISSOURI...

CITY           SKY/WX    TMP DP  RH WIND       PRES   REMARKS
SPRINGFIELD    CLOUDY    83  73  72 SW9       29.96S
JOPLIN         SUNNY     88  73  61 NW6       29.94S HX  95
BRANSON        PTSUNNY   81  75  83 CALM      29.99R

$$
MOZ032>034-039>042-045>050-055>058-069>072-190000-
...CENTRAL MISSOURI...

CITY           SKY/WX    TMP DP  RH WIND       PRES   REMARKS
COLUMBIA       NOT AVBL
JEFFERSON CITY CLOUDY    82  69  64 S6        29.92F
ROLLA          CLOUDY    78  69  73 S5        29.97F
SEDALIA        SUNNY     84  74  71 SW13      29.93S HX  91
WARRENSBURG    SUNNY     84  72  65 S8        29.90F

$$
MOZ051-052-059>065-190000-
...EAST CENTRAL MISSOURI...

CITY           SKY/WX    TMP DP  RH WIND       PRES   REMARKS
ST LOUIS INTL  CLOUDY    86  61  42 SW10      29.92S

$$
MOZ072>076-082>087-097>100-106>115-190000-
...SOUTH CENTRAL AND SOUTHEAST MISSOURI...

CITY           SKY/WX    TMP DP  RH WIND       PRES   REMARKS
CAPE GIRARDEAU SUNNY     84  69  60 SW5       29.94S
POPLAR BLUFF   SUNNY     84  69  60 S6        29.95S
WEST PLAINS    MOSUNNY   85  64  49 SE5       29.98F

$$



USA.gov is the U.S. government's official web portal to all federal, state and local government web resources and services.